TimeCDT,TemperatureF,Dew PointF,Humidity,Sea Level PressureIn,VisibilityMPH,Wind Direction,Wind SpeedMPH,Gust SpeedMPH,PrecipitationIn,Events,Conditions,WindDirDegrees,DateUTC
12:15 AM,75.2,69.6,83,30.20,10.0,Calm,Calm,-,N/A,,Clear,0,2013-07-18 05:15:00
12:35 AM,75.0,68.4,80,30.19,10.0,Calm,Calm,-,N/A,,Scattered Clouds,0,2013-07-18 05:35:00
12:55 AM,75.2,69.1,81,30.19,10.0,SSW,3.5,-,N/A,,Scattered Clouds,210,2013-07-18 05:55:00
1:15 AM,74.8,69.4,83,30.19,10.0,Calm,Calm,-,N/A,,Scattered Clouds,0,2013-07-18 06:15:00
1:35 AM,74.3,68.9,83,30.19,10.0,NE,3.5,-,N/A,,Scattered Clouds,50,2013-07-18 06:35:00
1:55 AM,73.6,67.3,81,30.19,10.0,Calm,Calm,-,N/A,,Clear,0,2013-07-18 06:55:00
2:15 AM,73.0,66.2,79,30.19,10.0,Calm,Calm,-,N/A,,Clear,0,2013-07-18 07:15:00
2:35 AM,73.0,66.6,80,30.20,10.0,Calm,Calm,-,N/A,,Clear,0,2013-07-18 07:35:00
2:55 AM,73.0,67.5,83,30.19,10.0,Calm,Calm,-,N/A,,Clear,0,2013-07-18 07:55:00
3:15 AM,72.7,68.0,85,30.19,7.0,NE,3.5,-,N/A,,Clear,40,2013-07-18 08:15:00
3:35 AM,72.1,66.2,82,30.19,5.0,Calm,Calm,-,N/A,,Haze,0,2013-07-18 08:35:00
3:55 AM,71.8,66.0,82,30.19,4.0,Calm,Calm,-,N/A,,Haze,0,2013-07-18 08:55:00
4:15 AM,71.6,66.9,85,30.18,1.2,Calm,Calm,-,N/A,,Haze,0,2013-07-18 09:15:00
4:35 AM,70.7,66.2,86,30.18,0.5,Calm,Calm,-,N/A,,Haze,0,2013-07-18 09:35:00
4:55 AM,70.7,65.7,84,30.18,0.8,Calm,Calm,-,N/A,,Haze,0,2013-07-18 09:55:00
5:15 AM,71.1,66.7,86,30.19,1.8,Calm,Calm,-,N/A,,Mist,0,2013-07-18 10:15:00
5:35 AM,70.7,66.2,86,30.19,1.5,Calm,Calm,-,N/A,,Haze,0,2013-07-18 10:35:00
5:55 AM,70.7,66.4,86,30.19,0.8,Calm,Calm,-,N/A,,Haze,0,2013-07-18 10:55:00
6:15 AM,70.3,65.8,86,30.19,4.0,Calm,Calm,-,N/A,,Clear,0,2013-07-18 11:15:00
6:35 AM,70.2,66.2,87,30.19,0.5,Calm,Calm,-,N/A,Fog,Fog,0,2013-07-18 11:35:00
6:55 AM,69.8,66.2,88,30.20,10.0,Calm,Calm,-,N/A,,Clear,0,2013-07-18 11:55:00
7:55 AM,77.0,71.6,83,30.20,10.0,Calm,Calm,-,N/A,,Clear,0,2013-07-18 12:55:00
9:55 AM,89.6,66.2,46,30.20,10.0,Calm,Calm,-,N/A,,Clear,0,2013-07-18 14:55:00
10:55 AM,91.4,66.2,43,30.19,10.0,Calm,Calm,-,N/A,,Clear,0,2013-07-18 15:55:00
12:55 PM,95.0,64.4,36,30.17,10.0,South,5.8,-,N/A,,Scattered Clouds,180,2013-07-18 17:55:00
2:55 PM,96.8,60.8,30,30.11,10.0,ESE,4.6,-,N/A,,Clear,120,2013-07-18 19:55:00
4:55 PM,98.6,57.2,25,30.05,10.0,Calm,Calm,-,N/A,,Clear,0,2013-07-18 21:55:00
5:55 PM,98.6,59.0,27,30.03,10.0,Calm,Calm,-,N/A,,Scattered Clouds,0,2013-07-18 22:55:00
7:55 PM,93.2,62.6,36,30.03,10.0,Calm,Calm,-,N/A,,Clear,0,2013-07-19 00:55:00
8:55 PM,84.2,66.2,55,30.04,10.0,South,4.6,-,N/A,,Clear,180,2013-07-19 01:55:00
11:35 PM,75.4,67.8,77,30.06,10.0,Calm,Calm,-,N/A,,Clear,0,2013-07-19 04:35:00
11:55 PM,75.4,69.3,81,30.06,10.0,Calm,Calm,-,N/A,,Clear,0,2013-07-19 04:55:00